weather.gov     
National Weather Service

Regional Weather Roundup
NWS Homepage
This page is being discontinued on March 12, 2014.
The same data is available at this site. Please update your bookmarks.
Thank you, and we apologize for the inconvenience.
Please send an email to SR-SRH.Webmaster@noaa.gov with any concerns.


Current Version
Previous Version:    01  02  03  04  05  06  07  08  09  10  11  12  13  14  15  16  17  18  19  20  21  22  23  24  25  26  27  28  29  30  
   31  32  33  34  35  36  37  38  39  40  41  42  43  44  45  46  47  48  49  50  51  52  53  54  55  56  57  58  59  60  
[Printable]
567
ASUS44 KFWD 311615
RWRTX
NORTH TEXAS HOURLY WEATHER ROUNDUP
NATIONAL WEATHER SERVICE FORT WORTH TX
1100 AM CDT FRI OCT 31 2014

NOTE: "FAIR" INDICATES FEW OR NO CLOUDS BELOW 12,000 FEET WITH NO
SIGNIFICANT WEATHER AND/OR OBSTRUCTIONS TO VISIBILITY.

TXZ118-119-311700-
DALLAS/FORT WORTH METROPLEX

CITY           SKY/WX    TMP DP  RH WIND       PRES   REMARKS
DFW AIRPORT    SUNNY     61  42  49 N18       30.33R
DALLAS LOVE    SUNNY     60  42  51 N14       30.33R
FTW MEACHAM    SUNNY     61  41  47 N13       30.34R
DAL-EXECUTIVE  SUNNY     63  42  46 N13G22    30.31R
FTW-ALLIANCE   SUNNY     59  40  49 N18       30.35R
FTW-NAS-JRB    SUNNY     61  44  53 N13G18    30.39R
FTW-SPINKS     SUNNY     61  43  51 N16G26    30.36R
ARLINGTON      SUNNY     62  40  44 N17       30.33R
GRAND PRAIRIE  SUNNY     61  43  51 MISG      30.34R
ADDISON        SUNNY     61  43  51 N12G18    30.33R
MESQUITE       SUNNY     61  43  51 N18G28    30.32R
LANCASTER      SUNNY     62  40  45 N15       30.33R
$$

TXZ091>094-102>105-117-120-121-131>134-311700-
NORTH CENTRAL TEXAS

CITY           SKY/WX    TMP DP  RH WIND       PRES   REMARKS
SHRMAN/DENISON SUNNY     57  45  63 N21G28    30.36R
GAINESVILLE    SUNNY     56  40  55 N16G23    30.37S
BOWIE          SUNNY     56  41  58 N13G21    30.38R
BRIDGEPORT     SUNNY     58  42  54 N12G17    30.40R
DECATUR        SUNNY     57  39  50 N13G18    30.37R
DENTON         SUNNY     59  41  51 N18G24    30.35R
MCKINNEY       SUNNY     60  41  49 N16       30.32R
GREENVILLE     SUNNY     61  41  48 N13G20    30.31R
ROCKWALL       SUNNY     60  42  50 N16       30.31R
TERRELL        SUNNY     62  41  46 N15G22    30.31R
WAXAHACHIE     SUNNY     62  44  52 N17       30.33R
CLEBURNE       SUNNY     61  43  51 N20       30.35R
GRANBURY       SUNNY     61  45  54 N13       30.37R
$$

TXZ083>090-098>101-113>116-127>130-139>142-154-155-311700-
WESTERN NORTH TEXAS

CITY           SKY/WX    TMP DP  RH WIND       PRES   REMARKS
WICHITA FALLS  SUNNY     54  39  57 NE15      30.42R
WF-KICKAPOO    SUNNY     55  38  52 N15G24    30.43S
VERNON         SUNNY     55  37  50 N12G18    30.46R
ABILENE        SUNNY     61  36  39 NE12      30.40S
ABILENE-DYESS  SUNNY     60  38  44 NE14      30.39S
BRECKENRIDGE   SUNNY     61  36  39 N10G21    30.39F
GRAHAM         SUNNY     58  41  54 N10G17    30.39S
MINERAL WELLS  SUNNY     59  40  49 N16       30.36R
STEPHENVILLE   SUNNY     60  40  47 N15       30.39R
COMANCHE       SUNNY     60  45  59 N12       30.38R
BROWNWOOD      SUNNY     63  39  42 N12       30.38R
COLEMAN        SUNNY     62  41  45 NE17      30.39S
BRADY          SUNNY     64  36  34 NE17      30.35S
$$

TXZ143>147-156>162-174-175-311700-
CENTRAL TEXAS

CITY           SKY/WX    TMP DP  RH WIND       PRES   REMARKS
WACO           SUNNY     64  43  46 N16G25    30.32R
WACO-TSTC      SUNNY     64  43  45 N13         N/A
WACO-MCGREGOR  SUNNY     64  45  48 N17       30.34R
HILLSBORO      SUNNY     63  42  45 N16       30.32R
CORSICANA      LGT RAIN  64  42  44 N16       30.31R
MEXIA          SUNNY     64  44  48 N10G20    30.28R
HEARNE         SUNNY     67  45  45 N10G26    30.28R
CAMERON        SUNNY     67  45  44 N16G22    30.28S
TEMPLE         SUNNY     66  43  42 N17       30.31R
KILLEEN        SUNNY     64  42  44 N12       30.33R
KILLEEN-SKYLRK SUNNY     66  41  39 N10       30.30R
GATESVILLE     SUNNY     64  43  45 N12       30.35S
HAMILTON       SUNNY     63  42  46 N15       30.36R
LAMPASAS       SUNNY     63  46  53 N13       30.33R
$$

TXZ095>097-106>112-122>126-135>138-148>153-164>167-311700-
EAST TEXAS

CITY           SKY/WX    TMP DP  RH WIND       PRES   REMARKS
PARIS          SUNNY     59  39  47 N17G24    30.30R
SULPHUR SPRNGS SUNNY     60  44  54 N16       30.32R
MOUNT PLEASANT SUNNY     61  43  50 NW14G20   30.28S
MINEOLA        SUNNY     63  43  48 N12       30.29S
TYLER          SUNNY     63  44  50 N15       30.26R
LONGVIEW       SUNNY     64  46  52 N14       30.23R
MARSHALL       SUNNY     66  47  51 N9        30.24S
ATHENS         SUNNY     61  43  51 N13       30.27R
PALESTINE      SUNNY     65  46  50 N13       30.27R
JACKSONVILLE   SUNNY     63  44  49 N8        30.26R
HENDERSON      SUNNY     63  45  51 N12G20    30.25R
NACOGDOCHES    SUNNY     66  45  45 N10G17    30.22R
LUFKIN         SUNNY     70  46  42 N9        30.21R
$$

SUPPLEMENTAL OBSERVATIONS (CENTRAL)

CITY           SKY/WX    TMP DP  RH WIND       PRES   REMARKS
LAKE TEXOMA      N/A     55  43  62 N15         N/A
CADDO GRASSLND   N/A     61  43  51 N7G15       N/A
PAT MAYSE LAKE   N/A     57  41  54 NW15        N/A
GREENVILLE       N/A     61  41  48 VRB18       N/A
CEDAR HILL       N/A     63  43  48 N8G18       N/A
PALESTINE        N/A     66  45  45 N8          N/A
MCGREGOR         N/A     66  43  42 N8G17       N/A
TEMPLE           N/A     66  41  39 VRB5G20     N/A
$$

SUPPLEMENTAL OBSERVATIONS (WEST)

CITY           SKY/WX    TMP DP  RH WIND       PRES   REMARKS
MILLERS CREEK    N/A     57  39  51 N13         N/A
POSSUM KINGDOM   N/A     59  36  41 N10         N/A
LBJ GRASSLAND    N/A     59  39  47 N10         N/A
GRANBURY         N/A     61  43  51 VRB13       N/A
HAMBY            N/A     61  37  41 NE13        N/A
$$

SUPPLEMENTAL OBSERVATIONS (EAST)

CITY           SKY/WX    TMP DP  RH WIND       PRES   REMARKS
CLARKSVILLE      N/A     61  43  51 N13         N/A
TEXARKANA        N/A     64  43  45 N8G17       N/A
LINDEN           N/A     66  46  48 NE2G12      N/A
CADDO LAKE       N/A     66  46  48 N6          N/A
GILMER           N/A     64  45  48 N7G16       N/A
HENDERSON        N/A     64  45  48 N15G22      N/A
LUFKIN           N/A     68  46  45 MISG        N/A
S SABINE NF      N/A     68  50  52 N6          N/A
$$

SUPPLEMENTAL OBSERVATIONS ARE A COLLECTION OF AUTOMATED INSTRUMENTS
THAT ARE MAINTAINED BY A VARIETY OF FEDERAL AND STATE AGENCIES.
CERTAIN ELEMENTS...SUCH AS HUMIDITY VALUES AND SUSTAINED WIND
SPEEDS...MAY BE APPROXIMATED.





U.S. Dept. of Commerce
NOAA National Weather Service
1325 East West Highway
Silver Spring, MD 20910
E-mail: w-nws.webmaster@noaa.gov
Page last modified: May 16, 2007
NATIONAL WEATHER SERVICE: for Safety, for Work, for Fun - FOR LIFE